Hourly Data Report for May 26, 2021

VINELAND STATION RCS
ONTARIO
Current Station Operator: ECCC - MSC

43°11'00.000" N
79°24'00.000" W
79.20 m
6139148
71171
XVN

Download Data

Hourly Data (May 2021)
Hourly Data Report for May 26, 2021
TIME
LST
Temp Definition
°C
Dew Point Definition
°C
Rel Hum Definition
%
Precip. Amount Definition
mm

Wind Dir Definition
10's deg

Wind Spd Definition
km/h
Visibility Definition
km
Stn Press Definition
kPa
Hmdx Definition


Wind Chill Definition


Weather Definition


00:00 22.7 15.0 62 0.0 21 17   100.30 27   LegendNANA
01:00 22.9 14.8 61 0.0 21 19   100.26 27   LegendNANA
02:00 22.9 14.7 60 0.0 21 18   100.24 27   LegendNANA
03:00 22.9 15.1 61 0.0 21 20   100.19 27   LegendNANA
04:00 22.3 14.9 63 0.0 21 22   100.18 26   LegendNANA
05:00 21.6 14.8 65 0.0 21 23   100.16 25   LegendNANA
06:00 22.2 15.2 65 0.0 21 23   100.19 26   LegendNANA
07:00 22.0 16.7 72 0.0 22 18   100.14 27   LegendNANA
08:00 22.6 17.3 72 0.0 22 20   100.15 28   LegendNANA
09:00 23.1 18.1 74 0.0 22 16   100.20 29   LegendNANA
10:00 23.1 17.6 71 0.0 21 17   100.17 29   LegendNANA
11:00 25.2 17.9 64 0.0 23 21   100.16 31   LegendNANA
12:00 24.5 17.5 65 0.0 24 25   100.13 30   LegendNANA
13:00 22.9 17.0 70 0.0 23 21   100.08 28   LegendNANA
14:00 22.9 17.5 72 0.0 23 19   100.08 29   LegendNANA
15:00 23.9 16.3 63 0.0 26 22   100.10 29   LegendNANA
16:00 25.4 15.7 55 0.0 26 27   100.08 30   LegendNANA
17:00 25.6 15.2 53 0.0 27 23   100.10 30   LegendNANA
18:00 23.9 14.9 57 0.0 26 18   100.10 28   LegendNANA
19:00 19.0 15.5 80 2.2 27 13   100.18     LegendNANA
20:00 18.9 14.3 75 0.0 29 16   100.26     LegendNANA
21:00 16.6 13.0 79 0.0 29 18   100.42     LegendNANA
22:00 15.8 10.0 68 0.0 32 18   100.55     LegendNANA
23:00 14.5 8.1 65 0.0 32 18   100.59     LegendNANA

Notes on Data Quality.

Legend

  • E = Estimated
  • M = Missing
  • NA = Not Available*
  • [empty] = Indicates an unobserved value
Date modified: